[[{"header":{"parameterUnit":"m.s-1","parameterCategory":1,"la1":30.2992,"la2":30.254,"lo1":-89.0895,"lo2":-89.0443,"dy":0.0025,"dx":0.0025,"nx":19,"ny":19,"refTime":"2026-04-21T21:00:00:Z","depth":0,"parameterNumber":2,"parameterNumberName":"U-component_of_WINDS"},"data":[0,0,0,-3.3601,-3.3601,-3.361,-3.361,-3.3649,-3.365,0,0,0,0,0,0,0,0,0,0,0,-3.3615,-3.3615,-3.3601,-3.3601,-3.361,-3.361,-3.3649,-3.365,0,0,0,0,0,0,0,0,0,0,0,-3.3614,-3.3615,-3.3616,-3.3602,-3.361,-3.361,-3.3649,-3.3633,0,0,0,0,0,0,0,0,0,0,-3.3619,-3.3648,-3.3615,-3.3616,-3.3602,-3.361,-3.361,-3.3631,-3.3634,-3.3657,0,-3.3682,0,-3.3666,-3.3654,-3.3654,0,0,0,-3.359,-3.3646,-3.3633,-3.3616,-3.3602,-3.361,-3.3603,-3.3632,-3.3635,-3.366,-3.3682,-3.3683,-3.3667,-3.3655,-3.3655,-3.3828,-3.3829,0,0,-3.3589,-3.3625,-3.3632,-3.3636,-3.3635,-3.3603,-3.3603,-3.3633,-3.366,-3.3682,-3.3683,-3.3668,-3.3655,-3.3655,-3.3826,-3.3828,0,0,0,-3.3596,-3.3625,-3.3611,-3.3635,-3.3635,-3.3603,-3.3604,-3.3658,-3.3651,-3.3683,-3.3668,-3.3655,-3.3656,-3.3825,-3.3827,-3.3928,0,0,0,-3.3595,-3.3629,-3.3612,-3.3634,-3.3635,-3.3646,-3.3629,-3.3649,-3.3651,-3.3668,-3.3655,-3.3657,-3.3823,-3.3826,-3.3922,-3.397,0,0,0,-3.3608,-3.363,-3.3637,-3.3636,-3.3641,-3.3645,-3.3639,-3.3648,-3.3642,-3.3654,-3.3657,-3.3822,-3.3825,-3.3917,-3.3961,-3.4025,0,0,0,-3.3634,-3.3728,-3.3639,-3.3739,-3.3641,-3.3708,-3.3638,-3.3686,-3.3709,-3.3656,-3.3823,-3.3827,-3.3915,-3.3955,-3.402,-3.4085,-3.4116,0,0,-3.3773,-3.3746,-3.3802,-3.3723,-3.3814,-3.3703,-3.381,-3.3797,-3.3766,-3.3809,-3.3813,-3.3924,-3.396,-3.4024,-3.4278,-3.4303,0,0,0,-3.3858,-3.3899,-3.3915,-3.3938,-3.393,-3.3927,-3.3893,-3.3889,-3.3923,-3.3795,-3.3964,-3.3985,-3.402,-3.405,-3.4071,-3.4099,-3.3842,-3.3842,-3.3841,-3.4107,-3.4061,-3.415,-3.4106,-3.4129,-3.4093,-3.4108,-3.4095,-3.4043,-3.4084,-3.4096,-3.4256,-3.4292,-3.4307,-3.4338,-3.4128,-3.4128,-3.4129,-3.4129,-3.4306,-3.4356,-3.4284,-3.4344,-3.4296,-3.4346,-3.4317,-3.4278,-3.4318,-3.4243,-3.4272,-3.4193,-3.4336,-3.436,-3.4136,-3.4135,-3.4134,-3.4133,-3.4133,-3.4463,-3.4479,-3.4471,-3.4498,-3.4525,-3.4477,-3.4519,-3.4474,-3.4432,-3.4461,-3.4468,-3.4466,-3.4458,-3.4468,-3.4468,-3.4469,-3.4469,-3.447,-3.447,-3.4629,-3.4617,-3.4657,-3.4656,-3.4664,-3.4669,-3.4635,-3.4642,-3.4639,-3.4603,-3.4602,-3.4547,-3.4359,-3.4312,-3.4478,-3.4477,-3.4476,-3.4475,-3.4474,-3.4847,-3.479,-3.4852,-3.4861,-3.4855,-3.4885,-3.4826,-3.4845,-3.4845,-3.4867,-3.4805,-3.4673,-3.4643,-3.4626,-3.4587,-3.4814,-3.4814,-3.4814,-3.4814,-3.4979,-3.4959,-3.5012,-3.5028,-3.5038,-3.4992,-3.5064,-3.5039,-3.5004,-3.5001,-3.4962,-3.4907,-3.4891,-3.487,-3.4847,-3.481,-3.5089,-3.509,-3.509,-3.511,-3.5089,-3.5158,-3.5122,-3.5115,-3.511,-3.5176,-3.5199,-3.5148,-3.51,-3.4998,-3.4986,-3.4896,-3.4869,-3.4819,-3.4785,-3.4716,0,0]},{"header":{"parameterUnit":"m.s-1","parameterCategory":1,"la1":30.2992,"la2":30.254,"lo1":-89.0895,"lo2":-89.0443,"dy":0.0025,"dx":0.0025,"nx":19,"ny":19,"refTime":"2026-04-21T21:00:00:Z","depth":0,"parameterNumber":3,"parameterNumberName":"V-component_of_WINDS"},"data":[0,0,0,2.8,2.8001,2.8042,2.8042,2.8103,2.8104,0,0,0,0,0,0,0,0,0,0,0,2.7995,2.7995,2.8,2.8001,2.8042,2.8042,2.8103,2.8104,0,0,0,0,0,0,0,0,0,0,0,2.7994,2.7995,2.7996,2.8001,2.8042,2.8042,2.8103,2.8069,0,0,0,0,0,0,0,0,0,0,2.8027,2.8029,2.7995,2.7996,2.8001,2.8042,2.8042,2.8067,2.8071,2.8089,0,2.8108,0,2.8107,2.8109,2.8109,0,0,0,2.7996,2.8026,2.8031,2.7996,2.8002,2.8042,2.8022,2.8069,2.8073,2.8095,2.8109,2.8111,2.8108,2.8109,2.811,2.8236,2.8237,0,0,2.7993,2.8005,2.8028,2.8034,2.803,2.8021,2.8023,2.8072,2.8088,2.8109,2.8112,2.8109,2.811,2.811,2.8235,2.8236,0,0,0,2.7991,2.8004,2.8007,2.8032,2.8039,2.8022,2.8025,2.8086,2.8086,2.8113,2.811,2.811,2.8111,2.8234,2.8236,2.8289,0,0,0,2.7989,2.8002,2.8007,2.8014,2.8038,2.8063,2.8038,2.8082,2.8088,2.811,2.811,2.8112,2.8233,2.8235,2.8285,2.8312,0,0,0,2.799,2.8002,2.8011,2.8015,2.8033,2.8062,2.8065,2.8083,2.8086,2.8109,2.8112,2.8233,2.8235,2.8282,2.8306,2.8348,0,0,0,2.7993,2.8057,2.8012,2.8081,2.8033,2.8095,2.8064,2.811,2.8136,2.8111,2.8234,2.8236,2.8281,2.8303,2.8345,2.8384,2.8402,0,0,2.808,2.8068,2.8108,2.8069,2.8142,2.8088,2.8169,2.8181,2.8172,2.8215,2.8218,2.8286,2.8306,2.8347,2.8501,2.8515,0,0,0,2.8139,2.8168,2.8185,2.8211,2.8223,2.8235,2.8233,2.8238,2.8274,2.8197,2.8313,2.8324,2.8348,2.8366,2.8378,2.8397,2.8245,2.8245,2.8244,2.8278,2.8264,2.8329,2.832,2.8346,2.8344,2.8363,2.8369,2.8346,2.8374,2.8386,2.8481,2.8504,2.8513,2.8533,2.8407,2.8407,2.8408,2.8408,2.8403,2.8442,2.8411,2.8464,2.8448,2.8491,2.8493,2.8475,2.8513,2.8471,2.8491,2.8446,2.8529,2.8546,2.8412,2.8411,2.841,2.841,2.841,2.8492,2.8508,2.8513,2.8549,2.8579,2.8567,2.8605,2.8589,2.8574,2.8594,2.8605,2.8604,2.86,2.8601,2.8601,2.8601,2.8602,2.8602,2.8602,2.8581,2.8586,2.862,2.8638,2.8653,2.867,2.8669,2.8683,2.8694,2.8679,2.8679,2.8654,2.854,2.8511,2.8607,2.8606,2.8606,2.8605,2.8605,2.8712,2.868,2.8733,2.8748,2.8768,2.8797,2.8777,2.8807,2.8815,2.8834,2.8805,2.8724,2.871,2.87,2.8676,2.8808,2.8808,2.8808,2.8808,2.8786,2.8778,2.8828,2.8853,2.8875,2.8863,2.8922,2.8922,2.8917,2.8921,2.89,2.8867,2.8858,2.8849,2.8836,2.8813,2.8978,2.8978,2.8978,2.8865,2.8859,2.8912,2.8908,2.8922,2.8935,2.899,2.9018,2.9006,2.8985,2.8924,2.8917,2.8864,2.8848,2.8824,2.8804,2.8762,0,0]}]]